Weather Roundup
Issued by NWS

Home | Current Version | Previous Version | Text Only | Print | Product List | Glossary On
Versions: 1 2 3 4 5 6 7 8 9 10 11 12 13 14 15 16 17 18 19 20 21 22 23 24 25 26 27 28 29 30 31 32 33 34 35 36 37 38 39 40 41 42 43 44 45 46 47 48 49 50
568
NZUS93 KARX 301759
HRRWXR

CURRENT HOURLY OBSERVATIONS ACROSS
MUCH OF THE UPPER MISSISSIPPI VALLEY
NATIONAL WEATHER SERVICE LA CROSSE WI
100 PM CDT SUN APR 30 2017


...SOUTHEAST MINNESOTA...


CITY           SKY/WX    TMP DP  RH WIND       PRES   REMARKS
ROCHESTER      CLOUDY    43  35  73 NE22      29.87F
ROCHESTER/MAYO CLOUDY    42  34  73 NE10G22   29.89F
WINONA         CLOUDY    45  37  76 E9G20     29.90F
AUSTIN         CLOUDY    43  36  75 NE18G26   29.85F
ALBERT LEA     CLOUDY    43  34  70 E16G23    29.84F
DODGE CENTER   CLOUDY    43  36  75 NE18G25   29.87F
PRESTON        CLOUDY    41  35  77 NE13G21   29.86F
OWATONNA       CLOUDY    43  34  70 NE17G25   29.88F
FARIBAULT      CLOUDY    43  37  81 N12G22    29.90F
$$

...ELSEWHERE IN MINNESOTA...


CITY           SKY/WX    TMP DP  RH WIND       PRES   REMARKS
MINNEAPOLIS    LGT RAIN  44  36  73 NE14G26   29.96F
INTNL FALLS    PTSUNNY   52  22  30 SE12      30.12F
DULUTH         CLOUDY    45  27  49 E12       30.09F
RED WING       DRIZZLE   46  32  57 E8        29.92F
REDWOOD FALLS  CLOUDY    41  34  76 NE15G24   29.93F
MANKATO        CLOUDY    41  35  79 NE21      29.89F
WORTHINGTON    LGT RAIN  37  35  92 NE24G35   29.81F WCI  26
FAIRMONT       LGT RAIN  40  36  86 NE21      29.84F WCI  30
$$

...SOUTHWEST WISCONSIN...


CITY           SKY/WX    TMP DP  RH WIND       PRES   REMARKS
LA CROSSE      CLOUDY    46  39  76 E18G25    29.89F
PRAIRIE DU CHI CLOUDY    44  37  76 NE12G21   29.85F
BOSCOBEL       CLOUDY    45  39  79 NE12      29.85F
LONE ROCK      NOT AVBL
PLATTEVILLE    CLOUDY    44  42  93 NE18G25   29.83F
FORT MC COY    LGT RAIN  43  40  89 E12       29.94F
MAUSTON-NEW LI CLOUDY    42  38  86 E7G16     29.93F
VIROQUA        CLOUDY    41  39  94 NE18      29.90F
WIS DELLS      CLOUDY    40  39  95 E15G22    29.90F FOG     WCI  32
$$

...ELSEWHERE IN WISCONSIN...


CITY           SKY/WX    TMP DP  RH WIND       PRES   REMARKS
MILWAUKEE      LGT RAIN  42  41  96 N17       29.89F FOG
MADISON        DRIZZLE   44  41  89 NE18      29.86F
GREEN BAY      LGT RAIN  41  40  96 NE20      30.00F FOG
EAU CLAIRE     CLOUDY    48  35  60 E13       29.94F
BLACK RVR FLS  DRIZZLE   45  35  68 E9        29.96F
MEDFORD        CLOUDY    45  33  63 E15       29.97F
WAUSAU         CLOUDY    46  33  60 E15G23    29.96F
WIS RAPIDS     CLOUDY    42  38  85 E13       29.96F
MARSHFIELD     CLOUDY    44  35  70 E13G25    29.95F
RICE LAKE      DRIZZLE   46  31  56 NE12      30.02F
$$

...NORTHEAST IOWA...


CITY           SKY/WX    TMP DP  RH WIND       PRES   REMARKS
WATERLOO       CLOUDY    44  39  82 NE22G30   29.77F
DUBUQUE        CLOUDY    43  40  89 NE24G30   29.78F
DECORAH        CLOUDY    43  37  81 NE14G22   29.83F
MASON CITY     CLOUDY    41  37  86 NE22      29.80F
CHARLES CITY   CLOUDY    43  39  87 NE18G24   29.81F
OELWEIN        CLOUDY    45  41  87 NE22G28   29.78F
$$

...ELSEWHERE IN IOWA...


CITY           SKY/WX    TMP DP  RH WIND       PRES   REMARKS
DES MOINES     DRIZZLE   44  41  89 NE15G26   29.67F
IOWA CITY      CLOUDY    46  42  86 E17G24    29.76F
FORT DODGE     CLOUDY    41  36  81 NE20G25   29.74F
MARSHALLTOWN   LGT RAIN  43  41  93 E30G37    29.71F
CEDAR RAPIDS   CLOUDY    44  43  96 E20       29.75F
$$

...NORTHERN ILLINOIS...


CITY           SKY/WX    TMP DP  RH WIND       PRES   REMARKS
CHICAGO-OHARE  LGT RAIN  46  43  89 N17       29.81F FOG
CHICAGO-MIDWAY CLOUDY    47  46  97 N12G23    29.81R
MOLINE         CLOUDY    47  43  86 NE13      29.74F FOG
ROCKFORD       DRIZZLE   47  44  90 NE18      29.82F FOG
PEORIA         CLOUDY    49  48  97 NE16      29.71F FOG
$$

NOTE: "FAIR" INDICATES FEW OR NO CLOUDS BELOW 12,000 FEET WITH NO
SIGNIFICANT WEATHER AND/OR OBSTRUCTIONS TO VISIBILITY. WIND
SPEEDS ARE IN MILES-PER-HOUR.




USA.gov is the U.S. government's official web portal to all federal, state and local government web resources and services.